Regional Weather Roundup
Issued by NWS

Home | Current Version | Previous Version | Graphics & Text | Print | Product List | Glossary On
Versions: 1 2 3 4 5 6 7 8 9 10 11 12 13 14 15 16 17 18 19 20 21 22 23 24 25 26 27 28 29 30 31 32 33 34 35 36 37 38 39 40 41 42 43 44 45 46 47 48 49 50
000
ASUS45 KCYS 201310
RWRWY

WYOMING REGIONAL WEATHER ROUNDUP
NATIONAL WEATHER SERVICE CHEYENNE WY
700 AM MDT MON OCT 20 2014

NOTE:  "FAIR" INDICATES FEW OR NO CLOUDS BELOW 12,000 FEET
WITH NO SIGNIFICANT WEATHER AND/OR OBSTRUCTIONS TO VISIBILITY.

WYZ001-201400-
YELLOWSTONE NATIONAL PARK

CITY           SKY/WX    TMP DP  RH WIND       PRES   REMARKS
LK YELLOWSTONE   N/A     24  21  88 NW3       30.23S
W YELLOWSTONE  NOT AVBL

$$
WYZ002>013-054>058-071-098>099-201400-
NORTHERN WYOMING

CITY           SKY/WX    TMP DP  RH WIND       PRES   REMARKS
JACKSON        CLEAR     25  23  93 VRB7      30.20R WCI  17
CODY           PTCLDY   N/A N/A N/A SE8       30.02S
GREYBULL       CLEAR     35  25  66 CALM      30.02S
WORLAND        CLEAR     35  27  72 SW6       30.02S WCI  30
SHERIDAN       PTCLDY    32  27  81 S5        29.97S WCI  27
BUFFALO        CLEAR     51  19  28 CALM      30.01F
GILLETTE       CLEAR     46  35  65 S9        30.01F
HULETT         FAIR      52  36  54 SW5       30.03
NEWCASTLE      FAIR      43  34  70 W3        30.07

$$
WYZ014>020-022>026-101>103-201400-
CENTRAL WYOMING

CITY           SKY/WX    TMP DP  RH WIND       PRES   REMARKS
BIG PINEY      CLEAR     23  19  85 W3        30.21S
PINEDALE       SUNNY     25  23  93 W8        30.21S WCI  16
DUBOIS         FAIR      36  21  55 N6        30.16S WCI  31
LANDER         PTCLDY    41  27  57 CALM      30.09R
RIVERTON       CLEAR     38  25  59 NW9       30.10S WCI  31
CASPER         CLEAR     37  29  72 CALM      30.09S
DOUGLAS        CLEAR     34  30  85 CALM      30.11S

$$
WYZ021-027>030-104>119-201400-
SOUTHERN WYOMING

CITY           SKY/WX    TMP DP  RH WIND       PRES   REMARKS
EVANSTON       NOT AVBL
KEMMERER       MOSUNNY   34  28  80 N7        30.20S WCI  28
FORT BRIDGER   FAIR      42  30  63 NW3       30.21S
ROCK SPRINGS   PTCLDY    38  28  67 SE7       30.18S WCI  33
DIXON          FAIR      33  28  83 CALM      30.23S
RAWLINS        PTCLDY    31  24  75 CALM      30.20R
SARATOGA       FAIR      37  30  75 S8        30.22R WCI  31
LARAMIE        PTCLDY    34  28  79 S9        30.21S WCI  27
CHEYENNE       CLEAR     37  32  82 W9        30.17S WCI  30
TORRINGTON     PTCLDY    34  31  88 CALM      30.09S
PINE BLUFFS    FAIR      32  30  93 CALM      30.15S

$$



USA.gov is the U.S. government's official web portal to all federal, state and local government web resources and services.